Regional Weather Roundup
Issued by NWS Northern Indiana

Home | Current Version | Previous Version | Text Only | Print | Product List | Glossary Off
Versions: 1 2 3 4 5 6 7 8 9 10 11 12 13 14 15 16 17 18 19 20 21 22 23 24 25 26 27 28 29 30 31 32 33 34 35 36 37 38 39 40 41 42 43 44 45 46 47 48 49 50

548
ASUS43 KIWX 171310
RWRIWX

KIWX WEATHER ROUNDUP
NATIONAL WEATHER SERVICE NORTHERN INDIANA
800 AM EST TUE JAN 17 2017

NOTE: "FAIR" INDICATES FEW OR NO CLOUDS BELOW 12,000 FEET WITH NO
SIGNIFICANT WEATHER AND/OR OBSTRUCTIONS TO VISIBILITY.

* THESE STATIONS ARE NOT UNDER NWS QUALITY CONTROL. THEY ALSO MAY NOT
  REPORT WEATHER SUCH AS PRECIPITATION OR FOG.

INZ001>027-171400-
NORTHERN INDIANA

CITY           SKY/WX    TMP DP  RH WIND       PRES   REMARKS
GARY*          CLOUDY    43  41  93 W17       29.79R
VALPARAISO     CLOUDY    43  42  97 W17       29.80R FOG
LAPORTE*       CLOUDY    43  43  99 W10       29.77R FOG
KNOX*          CLOUDY    41  36  81 W13       29.79R
SOUTH BEND     FOG       46  46 100 SW15      29.76R VSB 3/4
ELKHART*       CLOUDY    50  48  93 W10       29.74S FOG
GOSHEN         CLOUDY    50  47  89 SW14      29.75R
ROCHESTER*     CLOUDY    46  46 100 W16G28    29.81R FOG
WARSAW*        CLOUDY    50  46  87 SW12G17   29.77R
FORT WAYNE     CLOUDY    50  49  96 SW9       29.78R
PERU/GRISSOM   CLOUDY    49  49 100 W14       29.81R
MARION*        CLOUDY    54  52  94 W20       29.83R

$$
INZ028>050-171400-
CENTRAL INDIANA

CITY           SKY/WX    TMP DP  RH WIND       PRES   REMARKS
LAFAYETTE      CLOUDY    47  46  97 W14       29.86R
KOKOMO*        CLOUDY    50  48  93 W21G26    29.84R
MUNCIE*        CLOUDY    57  52  83 W10G23    29.83R
INDIANAPOLIS   CLOUDY    52  49  89 W14       29.88R

$$
MIZ043>046-050>051-056>058-064>065-071>073-077>080-171400-
SOUTHWEST LOWER MICHIGAN

CITY           SKY/WX    TMP DP  RH WIND       PRES   REMARKS
BATTLE CREEK   CLOUDY    40  40 100 SE6       29.75S
BENTON HARBOR  CLOUDY    44  43  96 SW18      29.75R FOG
COLDWATER*     CLOUDY    42  42 100 SE10      29.74F FOG
HILLSDALE*     DRIZZLE   36  36 100 E5        29.75F
HOLLAND        CLOUDY    37  35  92 E7        29.73F
GRAND RAPIDS   CLOUDY    34  34 100 NE12      29.75F FOG     WCI  25
KALAMAZOO      CLOUDY    43  40  89 S3        29.74F FOG
STURGIS*       CLOUDY    45  45 100 S7        29.73F FOG
THREE RIVERS*  FOG       41  41 100 CALM      29.74S VSB 3/4

$$
OHZ001>008-015>018-024>025-171400-
NORTHWEST OHIO

CITY           SKY/WX    TMP DP  RH WIND       PRES   REMARKS
DEFIANCE       HVY RAIN  51  49  92 W5        29.76F FOG
FINDLAY        CLOUDY    52  49  89 S14       29.79F
TOLEDO EXPRESS RAIN      45  45 100 CALM      29.78F FOG
TOLEDO METCALF LGT RAIN  50  50 100 S9        29.80F FOG
LIMA           CLOUDY    56  56 100 S16G25    29.79F

$$
AND FOR LAKE MICHIGAN COASTAL AND OPEN LAKE BUOY OBSERVATIONS

STATION/POSITION TEMP    WIND        PRES    VSBY  WAVE
                 AIR SEA DIR/SP/G                  HT/PER
                 (F)     (DEG/KT/KT) (MB)    (MI)  (FT/S)
CALUMET HARBOR    41     240/  9/ 13 1007.8R
BURNS HARBOR      41     250/ 14/ 16 1008.8R

$$
&&




USA.gov is the U.S. government's official web portal to all federal, state and local government web resources and services.